Vertical_Velocity
1 0 1 0 -1 -1 -1 -0 -1 -0 -0 0 -1 -1 -0 -1 -1 -1 -2 0 3 0 1 -2 -0 2 2 1 1 4 1 -5 -8 1 -3 2 -3 4 1 -2 3 -2 1 -1 -0
-1 -1 -0 -2 -1 -0 1 2 1 -1 -1 0 -0 2 0 -1 -0 0 -0 2 -1 -1 -0 -2 -0 0 -1 1 -2 2 -6 -5 0 2 -3 0 -1 1 -1 2 -1 1 3 3 -1
1 0 0 -0 -0 0 0 0 0 1 2 -0 -1 -0 -2 -0 -3 0 0 0 -1 -1 1 2 1 1 1 4 1 -1 -15 14 1 4 2 -2 -1 -3 -0 -10 5 9 4 -0 1
-1 -0 -1 0 -1 -1 -0 0 -1 -1 0 -0 1 0 -0 -2 -7 -1 -0 1 2 3 2 1 1 1 -1 -3 6 -3 -1 2 -2 0 1 -1 -1 -4 -9 2 1 2 0 -1 0
-0 -1 -1 -2 -1 -2 -1 -2 -2 -1 0 0 2 -1 -0 2 0 1 1 -1 -2 1 1 2 -1 -2 -0 0 5 -5 3 2 4 2 1 1 -1 5 -20 6 -1 -1 -2 2 1
-1 -1 -1 -1 0 0 -1 -3 -0 0 -2 -3 -4 -0 -1 -0 3 2 2 3 5 0 -1 1 1 2 -1 -3 -2 -4 1 3 -1 2 -3 -3 1 4 -2 9 1 1 2 0 -1
-2 -2 -2 -2 -3 -1 -1 -2 -2 -2 -1 -2 -2 -1 -3 6 -0 3 1 3 -0 0 0 3 1 -1 -2 4 1 -1 -3 2 -4 -2 2 4 -1 -26 9 -3 -2 0 2 -1 2
1 0 0 -1 -2 -3 -2 -4 -0 -1 -1 0 -3 -3 -1 -1 2 -2 2 1 0 -0 1 3 2 2 -2 2 0 1 3 -4 -8 3 4 8 -7 -2 1 0 4 2 0 2 3
-3 -3 -2 -3 -5 -2 -1 -1 -1 -4 -1 -0 -3 3 -4 -2 1 -0 2 2 1 0 1 1 3 -0 3 2 4 -6 -2 -4 -3 0 4 4 -0 -4 0 -2 -3 -4 -2 -1 1
-1 1 -0 -1 -4 -4 1 1 2 -4 2 2 -2 -1 2 -2 2 4 2 1 1 1 2 -0 4 -1 0 0 -17 -2 -0 -0 -7 -6 3 -0 -12 9 -3 -1 -3 -6 -3 -4 -4
-3 -4 -5 3 -4 -3 -1 0 1 -5 -1 3 4 -2 1 2 -0 3 1 2 3 4 4 3 -2 -12 8 8 7 4 2 3 -6 5 2 -6 -0 -8 7 -4 -4 -0 0 -3 7
-5 -4 -2 2 -6 -6 -7 -3 0 -6 -24 14 5 4 1 1 -3 -2 -0 -1 0 -1 -1 1 -12 13 4 2 0 3 1 -15 -4 4 6 0 -8 -8 -4 -7 -6 -1 -7 8 9
-4 -5 -4 2 -5 -3 -2 -4 -3 -0 -7 -4 6 3 2 2 3 1 1 0 2 -0 2 0 -2 2 3 3 3 1 1 -2 6 -4 1 -1 -17 -15 -4 -8 -3 8 14 4 8
-1 -4 -4 2 -1 -2 -3 -4 -2 -2 -6 4 3 3 2 -0 1 2 2 3 2 2 2 -2 -0 -1 -1 -2 4 3 2 6 5 8 -1 -1 -15 -11 -11 -12 -4 2 1 -0 -2
-1 -3 1 -9 -4 3 1 1 -5 -8 -5 -2 1 4 0 1 4 3 3 2 2 4 5 -2 -0 -1 -1 -0 6 -1 4 1 2 4 3 4 -1 -5 2 -20 6 2 2 -0 -0
-0 0 -5 3 -3 -4 3 -3 -0 -4 -13 2 3 -1 1 1 2 1 6 -0 4 0 2 -1 5 1 0 -1 0 1 5 3 -0 3 2 -2 -0 -17 -1 3 8 -4 3 7 4
-0 -3 -2 -0 1 3 0 -6 2 -2 2 2 0 -4 -0 -6 -6 -5 -2 0 0 -4 -3 -2 -2 2 5 4 5 5 5 -2 -1 0 -6 2 6 -26 10 5 -2 4 1 -0 1
-3 -2 -3 -2 1 -1 1 -3 -1 1 -1 1 0 -1 3 -1 0 5 -1 -4 -0 0 -2 1 -7 1 2 4 3 5 3 -4 -2 -1 -2 1 -5 1 4 5 5 10 4 -0 -1
1 -2 2 -2 -2 0 1 -2 -2 -1 -4 -3 -5 -5 1 1 -1 -4 -1 0 -5 -0 -1 0 -1 1 -1 -1 1 2 3 7 2 3 4 -3 -2 5 6 1 -1 -1 -1 -2 1
-4 -2 -2 3 -0 -2 -0 3 3 4 2 3 2 4 2 -6 -3 4 -0 2 3 4 6 1 -8 -3 3 -3 3 -1 -1 5 0 1 0 -1 -2 -1 4 -1 -5 -9 -4 -4 -2
-7 1 -4 -0 1 -1 -0 -0 -3 0 5 1 -1 -3 -2 -2 3 9 11 5 3 3 -1 3 6 -5 -3 -4 -5 0 -4 1 1 -0 1 -1 -9 4 -5 -2 -4 1 0 -1 -4
1 -2 -3 1 -1 -1 2 -2 -2 -1 -1 -2 2 -0 11 8 -3 -1 -1 1 0 -1 -5 -7 -0 -2 -5 -2 2 3 -1 3 -0 -1 -1 1 -23 0 0 -1 -3 -2 6 3 -1
-6 -5 -1 -1 -4 -1 -4 -4 -4 -1 1 4 -2 5 -0 -2 -4 -1 -2 5 -5 -3 4 9 4 -0 -1 -4 1 0 -1 1 3 11 -6 2 -16 7 0 2 -1 -3 -2 -5 -6
-5 -3 -10 -4 -3 -2 -1 -1 -3 1 0 2 0 -1 2 -1 3 0 -5 -1 -0 -1 -1 11 7 -2 -5 -6 8 2 -6 4 7 1 -3 -15 -17 -3 18 -0 -5 -1 -1 -2 -2
2 -7 -6 -4 -1 4 -0 -1 5 -1 -2 0 0 3 7 2 -8 -3 3 -6 -4 -2 -3 -0 -3 4 -10 4 7 5 2 1 1 -6 5 -25 2 9 7 -3 -1 -2 -3 -1 -1
8 2 -5 -0 -1 -3 -2 -0 -1 6 3 -10 2 1 -2 -3 11 -3 2 5 -1 -15 0 2 -12 4 -13 -7 4 -4 -4 3 4 0 -12 5 -17 1 1 -0 -5 -4 -2 -2 -2
-3 0 1 4 1 -2 -2 2 -1 5 -8 1 -1 -2 -3 3 1 -1 3 -1 0 -0 10 1 7 8 -16 7 3 -8 -9 3 5 4 7 4 4 3 -0 -2 -1 -1 -2 -2 -2
Height
3144 3141 3138 3135 3132 3130 3127 3125 3124 3121 3119 3117 3114 3112 3110 3108 3106 3105 3103 3102 3099 3098 3097 3096 3096 3096 3095 3094 3094 3093 3091 3085 3086 3087 3087 3088 3089 3089 3089 3089 3089 3089 3090 3091 3092
3143 3140 3137 3134 3131 3128 3125 3122 3120 3118 3116 3114 3111 3108 3105 3103 3102 3100 3098 3096 3094 3093 3093 3092 3092 3091 3090 3090 3089 3087 3083 3080 3083 3083 3083 3083 3083 3084 3083 3083 3082 3084 3085 3086 3087
3140 3137 3134 3132 3128 3125 3122 3120 3117 3114 3112 3109 3107 3105 3102 3099 3097 3095 3093 3092 3090 3089 3088 3087 3086 3085 3084 3083 3082 3079 3075 3077 3078 3078 3078 3077 3077 3076 3077 3076 3078 3082 3081 3080 3080
3138 3135 3132 3128 3125 3122 3119 3116 3113 3111 3108 3105 3102 3099 3097 3096 3096 3091 3089 3087 3085 3084 3083 3082 3081 3079 3079 3077 3077 3073 3072 3073 3072 3073 3073 3072 3071 3069 3070 3073 3073 3074 3074 3073 3074
3136 3132 3129 3126 3122 3119 3116 3113 3110 3107 3104 3101 3098 3096 3093 3091 3090 3087 3084 3082 3081 3079 3078 3077 3076 3074 3072 3071 3070 3066 3068 3068 3068 3067 3067 3065 3065 3063 3064 3066 3067 3067 3067 3068 3068
3133 3129 3125 3122 3119 3115 3112 3108 3105 3103 3101 3098 3094 3092 3089 3086 3083 3081 3079 3077 3076 3075 3074 3072 3070 3069 3068 3067 3065 3063 3062 3062 3061 3062 3059 3059 3058 3055 3062 3060 3060 3060 3061 3061 3062
3129 3125 3120 3117 3113 3110 3106 3103 3100 3097 3094 3092 3089 3085 3082 3082 3078 3075 3073 3072 3071 3070 3069 3067 3065 3064 3062 3062 3059 3057 3056 3056 3056 3057 3054 3053 3044 3049 3055 3054 3053 3053 3054 3054 3055
3123 3119 3115 3110 3107 3103 3100 3097 3093 3090 3087 3084 3081 3078 3074 3072 3070 3068 3067 3066 3065 3064 3062 3061 3059 3058 3057 3057 3054 3054 3051 3048 3050 3051 3048 3048 3033 3047 3047 3047 3047 3047 3048 3048 3048
3117 3113 3109 3105 3099 3096 3093 3089 3086 3083 3080 3075 3073 3070 3066 3064 3063 3063 3062 3060 3058 3056 3054 3054 3053 3052 3052 3050 3050 3049 3043 3042 3044 3046 3042 3041 3033 3041 3041 3041 3041 3042 3042 3041 3041
3112 3107 3103 3099 3093 3088 3085 3082 3078 3076 3072 3068 3063 3064 3060 3059 3056 3054 3052 3051 3049 3048 3047 3046 3046 3044 3044 3045 3041 3041 3039 3038 3037 3039 3034 3032 3028 3034 3034 3033 3034 3034 3034 3034 3033
3105 3100 3096 3093 3086 3081 3077 3074 3073 3070 3064 3062 3058 3054 3051 3048 3046 3045 3044 3042 3041 3040 3039 3039 3040 3036 3039 3040 3039 3039 3037 3034 3035 3033 3029 3025 3019 3025 3027 3023 3025 3025 3024 3023 3023
3097 3092 3086 3084 3079 3074 3069 3065 3061 3058 3048 3051 3048 3044 3041 3039 3039 3039 3040 3040 3038 3037 3037 3037 3034 3037 3036 3035 3034 3033 3030 3027 3027 3027 3022 3017 3008 3013 3017 3013 3015 3015 3014 3013 3011
3090 3084 3080 3077 3072 3067 3063 3060 3056 3051 3047 3042 3036 3036 3037 3037 3036 3037 3037 3036 3035 3034 3033 3032 3034 3034 3033 3032 3031 3028 3025 3021 3022 3020 3015 3008 2995 3000 3004 3005 3007 3005 3003 3001 3001
3084 3078 3072 3072 3068 3062 3059 3055 3052 3048 3043 3040 3036 3035 3037 3036 3036 3035 3034 3036 3034 3032 3030 3027 3028 3027 3027 3025 3027 3019 3021 3018 3014 3014 3008 3007 2992 2992 2995 2997 2997 2995 2993 2991 2990
3078 3073 3070 3062 3062 3058 3056 3052 3050 3049 3049 3042 3038 3036 3035 3037 3036 3035 3034 3033 3032 3031 3030 3025 3023 3021 3019 3019 3018 3014 3012 3012 3010 3007 3004 2999 3005 2982 2988 2989 2988 2987 2988 2987 2985
3075 3067 3065 3062 3058 3056 3053 3050 3048 3050 3043 3040 3036 3035 3035 3034 3034 3033 3032 3031 3029 3025 3022 3020 3018 3016 3012 3012 3011 3009 3007 3006 3005 3004 3001 2991 2997 2973 2983 2983 2983 2985 2983 2981 2981
3071 3064 3060 3057 3055 3052 3050 3049 3049 3044 3042 3039 3036 3034 3033 3033 3030 3028 3027 3027 3027 3022 3017 3014 3011 3008 3006 3005 3004 3003 3003 3006 3003 3003 2990 2986 2988 2976 2979 2980 2980 2980 2980 2979 2979
3068 3061 3057 3055 3051 3049 3047 3047 3046 3042 3039 3036 3033 3031 3030 3027 3026 3024 3022 3021 3020 3019 3014 3009 3003 3003 3001 3000 3000 2999 3000 3001 2995 2997 2990 2986 2980 2974 2975 2975 2976 2977 2976 2975 2975
3064 3058 3055 3051 3047 3045 3045 3045 3042 3039 3037 3034 3030 3026 3025 3023 3023 3020 3018 3016 3013 3013 3014 3008 3002 3000 2999 2998 2999 2997 2996 2997 2993 2990 2990 2981 2977 2976 2973 2972 2972 2973 2972 2973 2973
3058 3053 3052 3048 3043 3041 3041 3040 3041 3037 3034 3031 3029 3028 3023 3021 3021 3019 3014 3012 3010 3008 3007 3007 3001 2996 2995 2995 2997 2995 2995 2993 2993 2991 2983 2973 2971 2969 2969 2969 2969 2970 2969 2970 2970
3054 3049 3048 3045 3041 3037 3035 3034 3035 3033 3031 3029 3025 3023 3022 3018 3016 3013 3009 3008 3006 3005 3004 3003 3001 2996 2994 2993 2993 2993 2989 2989 2989 2986 2982 2979 2969 2968 2968 2967 2967 2967 2965 2964 2963
3047 3045 3042 3039 3038 3032 3029 3029 3030 3027 3026 3024 3022 3019 3015 3012 3010 3010 3008 3007 3004 3004 3000 2999 2997 2990 2989 2987 2985 2983 2982 2983 2984 2982 2979 2978 2968 2965 2966 2967 2966 2963 2958 2956 2956
3043 3041 3039 3035 3032 3028 3027 3027 3024 3023 3022 3018 3016 3015 3013 3010 3009 3005 3004 3004 3000 2999 2997 2992 2988 2986 2982 2983 2980 2978 2978 2978 2977 2974 2972 2974 2965 2963 2964 2964 2961 2958 2955 2953 2951
3039 3034 3033 3027 3026 3025 3022 3020 3018 3017 3014 3013 3010 3008 3007 3004 3005 2999 2998 2994 2995 2993 2992 2988 2980 2982 2980 2977 2977 2974 2974 2973 2974 2970 2966 2963 2957 2959 2959 2956 2954 2951 2949 2947 2946
3036 3029 3026 3025 3023 3021 3018 3017 3012 3007 3007 3006 3005 3004 3003 2998 2995 2994 2993 2990 2990 2987 2985 2984 2977 2975 2973 2971 2968 2967 2967 2966 2963 2961 2961 2954 2953 2951 2952 2948 2947 2946 2944 2942 2940
3033 3027 3020 3015 3013 3013 3013 3011 3008 3005 3002 3000 2999 2997 2996 2993 2992 2986 2987 2985 2981 2979 2977 2974 2968 2967 2962 2965 2963 2959 2958 2955 2954 2953 2951 2949 2946 2947 2945 2944 2943 2942 2939 2937 2934
3026 3020 3014 3010 3007 3007 3008 3006 3003 3002 2998 2995 2993 2989 2986 2985 2984 2981 2979 2977 2975 2972 2969 2968 2965 2960 2955 2956 2955 2952 2948 2947 2945 2944 2947 2944 2944 2942 2940 2939 2937 2935 2932 2930 2928